Location: *
(37.9500°N, 27.3666°E)
Time: 07:39:34
(UTC+00:00)

X-37B - Pass Details

Date: 19 April 2024
Orbit: 277 x 277 km, 45.0° (Epoch: 01 November)

Event Time Altitude Azimuth Distance (km) Brightness Sun altitude
Exits shadow 02:22:49 13° 309° (NW) 951 2.3 -13.1°
Maximum altitude 02:24:50 46° 23° (NNE) 383 0.9 -12.8°
Drops below altitude 10° 02:27:12 10° 100° (E) 1,096 3.7 -12.3°
Sets 02:29:09 0° 106° (ESE) 1,906 4.9 -12.0°
